ARG1911 SAAR-SABE

Flight info

Callsign ARG1911
Flight time 0h 36m
Altitude 23000
Route VASAL2C VASAL W20 MULTA W24 SNT SNT9R
Aircraft B38M/M-SDE1FGHILORVWXY/HB1

Departure

Time 2026-05-04 02:00
Airport Rosario Islas Malvinas International Airport (SAAR)

Arrival

Time 2026-05-04 02:37
Airport Aeroparque Jorge Newbery (SABE)
Time Latitude Longitude Altitude Speed Heading
2026-05-04 01:41 -32.91679 -60.78158 98 ft 0 kts 111°
2026-05-04 01:53 -32.91677 -60.78164 98 ft 2 kts 110°
2026-05-04 01:54 -32.91672 -60.78180 97 ft 2 kts 110°
2026-05-04 01:54 -32.91668 -60.78195 97 ft 2 kts 110°
2026-05-04 01:54 -32.91663 -60.78211 97 ft 2 kts 110°
2026-05-04 01:54 -32.91658 -60.78226 98 ft 2 kts 111°
2026-05-04 01:55 -32.91653 -60.78241 97 ft 2 kts 121°
2026-05-04 01:55 -32.91646 -60.78251 98 ft 1 kts 162°
2026-05-04 01:55 -32.91639 -60.78252 98 ft 1 kts 188°
2026-05-04 01:55 -32.91633 -60.78251 98 ft 1 kts 196°
2026-05-04 01:56 -32.91629 -60.78249 98 ft 0 kts 198°
2026-05-04 01:57 -32.91634 -60.78251 98 ft 3 kts 198°
2026-05-04 01:58 -32.91790 -60.78531 100 ft 18 kts 258°
2026-05-04 01:59 -32.91765 -60.78619 98 ft 12 kts 310°
2026-05-04 01:59 -32.91699 -60.78704 97 ft 15 kts 327°
2026-05-04 01:59 -32.91646 -60.78753 99 ft 3 kts 339°
2026-05-04 01:59 -32.91603 -60.78749 100 ft 15 kts
2026-05-04 02:00 -32.91228 -60.78665 99 ft 97 kts 10°
2026-05-04 02:00 -32.89930 -60.78380 260 ft 175 kts 10°
2026-05-04 02:00 -32.89107 -60.78184 744 ft 185 kts 12°
2026-05-04 02:00 -32.87812 -60.77887 1881 ft 193 kts 10°
2026-05-04 02:01 -32.86463 -60.77581 2960 ft 203 kts
2026-05-04 02:01 -32.85035 -60.77165 3857 ft 223 kts 21°
2026-05-04 02:01 -32.83797 -60.75911 4680 ft 252 kts 54°
2026-05-04 02:01 -32.83197 -60.73837 5495 ft 276 kts 72°
2026-05-04 02:02 -32.82814 -60.71590 6608 ft 284 kts 84°
2026-05-04 02:02 -32.83152 -60.69225 7608 ft 299 kts 111°
2026-05-04 02:02 -32.84356 -60.67219 8750 ft 301 kts 140°
2026-05-04 02:02 -32.86116 -60.65943 9872 ft 302 kts 160°
2026-05-04 02:03 -32.88143 -60.65235 10777 ft 308 kts 166°
2026-05-04 02:03 -32.90259 -60.64504 11473 ft 323 kts 166°
2026-05-04 02:03 -32.92452 -60.63719 12196 ft 335 kts 165°
2026-05-04 02:03 -32.94696 -60.62896 13169 ft 337 kts 166°
2026-05-04 02:04 -32.96925 -60.62069 14329 ft 332 kts 166°
2026-05-04 02:04 -32.99106 -60.61253 15482 ft 326 kts 167°
2026-05-04 02:04 -33.01227 -60.60455 16630 ft 321 kts 168°
2026-05-04 02:04 -33.03388 -60.59643 17587 ft 324 kts 168°
2026-05-04 02:05 -33.05538 -60.58833 18337 ft 331 kts 168°
2026-05-04 02:05 -33.07746 -60.58001 19107 ft 333 kts 169°
2026-05-04 02:05 -33.09972 -60.57161 19831 ft 337 kts 169°
2026-05-04 02:05 -33.12219 -60.56314 20556 ft 341 kts 169°
2026-05-04 02:06 -33.14495 -60.55455 21270 ft 344 kts 170°
2026-05-04 02:06 -33.16792 -60.54587 21966 ft 348 kts 170°
2026-05-04 02:06 -33.19122 -60.53707 22680 ft 351 kts 170°
2026-05-04 02:06 -33.21480 -60.52816 23025 ft 363 kts 170°
2026-05-04 02:07 -33.23919 -60.51894 23014 ft 380 kts 170°
2026-05-04 02:07 -33.26496 -60.50918 23011 ft 396 kts 169°
2026-05-04 02:07 -33.29144 -60.49914 23014 ft 402 kts 169°
2026-05-04 02:07 -33.31820 -60.48899 23023 ft 405 kts 169°
2026-05-04 02:08 -33.34469 -60.47664 23023 ft 414 kts 158°
2026-05-04 02:08 -33.36966 -60.45915 23027 ft 417 kts 156°
2026-05-04 02:08 -33.39476 -60.44176 23031 ft 417 kts 156°
2026-05-04 02:08 -33.41988 -60.42428 23031 ft 417 kts 156°
2026-05-04 02:09 -33.44499 -60.40679 23032 ft 417 kts 156°
2026-05-04 02:09 -33.47004 -60.38930 23033 ft 417 kts 156°
2026-05-04 02:09 -33.49481 -60.37201 23034 ft 417 kts 156°
2026-05-04 02:09 -33.51986 -60.35450 23035 ft 417 kts 156°
2026-05-04 02:10 -33.54492 -60.33698 23034 ft 417 kts 156°
2026-05-04 02:10 -33.57000 -60.31942 23035 ft 417 kts 156°
2026-05-04 02:10 -33.59507 -60.30187 23037 ft 417 kts 156°
2026-05-04 02:10 -33.62013 -60.28431 23037 ft 417 kts 156°
2026-05-04 02:11 -33.64517 -60.26675 23035 ft 417 kts 156°
2026-05-04 02:11 -33.67025 -60.24915 23033 ft 417 kts 156°
2026-05-04 02:11 -33.69531 -60.23155 23039 ft 417 kts 156°
2026-05-04 02:11 -33.72041 -60.21392 23042 ft 417 kts 156°
2026-05-04 02:12 -33.74547 -60.19630 23040 ft 417 kts 156°
2026-05-04 02:12 -33.77025 -60.17886 23038 ft 417 kts 156°
2026-05-04 02:12 -33.79527 -60.16125 23036 ft 417 kts 156°
2026-05-04 02:12 -33.82026 -60.14355 23038 ft 418 kts 155°
2026-05-04 02:13 -33.84285 -60.12082 23031 ft 432 kts 137°
2026-05-04 02:13 -33.86074 -60.09135 23038 ft 438 kts 130°
2026-05-04 02:13 -33.87801 -60.06128 23037 ft 438 kts 130°
2026-05-04 02:13 -33.89524 -60.03087 23035 ft 439 kts 129°
2026-05-04 02:14 -33.91235 -60.00039 23036 ft 439 kts 129°
2026-05-04 02:14 -33.92939 -59.96991 23033 ft 439 kts 129°
2026-05-04 02:14 -33.94640 -59.93942 23036 ft 439 kts 129°
2026-05-04 02:14 -33.96343 -59.90887 23035 ft 439 kts 129°
2026-05-04 02:15 -33.98025 -59.87868 23034 ft 439 kts 129°
2026-05-04 02:15 -33.99726 -59.84811 23037 ft 439 kts 129°
2026-05-04 02:15 -34.01427 -59.81752 23040 ft 439 kts 129°
2026-05-04 02:15 -34.03128 -59.78689 23036 ft 439 kts 129°
2026-05-04 02:16 -34.04827 -59.75629 23037 ft 439 kts 129°
2026-05-04 02:16 -34.06530 -59.72559 23036 ft 439 kts 129°
2026-05-04 02:16 -34.08226 -59.69499 23037 ft 439 kts 129°
2026-05-04 02:16 -34.09926 -59.66427 23033 ft 440 kts 129°
2026-05-04 02:17 -34.11627 -59.63352 23033 ft 440 kts 129°
2026-05-04 02:17 -34.13320 -59.60288 23037 ft 440 kts 129°
2026-05-04 02:17 -34.14989 -59.57267 23038 ft 440 kts 129°
2026-05-04 02:17 -34.16699 -59.54167 23073 ft 427 kts 129°
2026-05-04 02:18 -34.18316 -59.51232 23026 ft 412 kts 129°
2026-05-04 02:18 -34.19869 -59.48416 22754 ft 405 kts 129°
2026-05-04 02:18 -34.21431 -59.45579 22289 ft 407 kts 129°
2026-05-04 02:18 -34.21959 -59.44608 22105 ft 409 kts 128°
2026-05-04 02:19 -34.22587 -59.43423 21838 ft 411 kts 128°
2026-05-04 02:19 -34.24111 -59.40517 21367 ft 409 kts 128°
2026-05-04 02:19 -34.25642 -59.37609 20962 ft 406 kts 128°
2026-05-04 02:19 -34.27156 -59.34736 20504 ft 405 kts 127°
2026-05-04 02:20 -34.28667 -59.31868 20050 ft 403 kts 127°
2026-05-04 02:20 -34.30171 -59.29011 19583 ft 401 kts 127°
2026-05-04 02:20 -34.31661 -59.26177 19106 ft 398 kts 127°
2026-05-04 02:20 -34.33142 -59.23362 18652 ft 396 kts 127°
2026-05-04 02:21 -34.34617 -59.20553 18110 ft 394 kts 126°
2026-05-04 02:21 -34.36091 -59.17744 17388 ft 398 kts 126°
2026-05-04 02:21 -34.37561 -59.14941 16909 ft 393 kts 126°
2026-05-04 02:21 -34.39007 -59.12183 16462 ft 388 kts 126°
2026-05-04 02:22 -34.40444 -59.09437 16003 ft 384 kts 125°
2026-05-04 02:22 -34.41866 -59.06720 15547 ft 379 kts 125°
2026-05-04 02:22 -34.43274 -59.04025 15097 ft 375 kts 125°
2026-05-04 02:22 -34.44661 -59.01372 14648 ft 371 kts 125°
2026-05-04 02:23 -34.46036 -58.98736 14201 ft 368 kts 125°
2026-05-04 02:23 -34.47397 -58.96129 13729 ft 364 kts 124°
2026-05-04 02:23 -34.48744 -58.93543 13246 ft 361 kts 124°
2026-05-04 02:23 -34.50079 -58.90981 12786 ft 357 kts 124°
2026-05-04 02:24 -34.51397 -58.88449 12337 ft 353 kts 124°
2026-05-04 02:24 -34.52701 -58.85943 11892 ft 349 kts 124°
2026-05-04 02:24 -34.53975 -58.83491 11455 ft 346 kts 124°
2026-05-04 02:24 -34.55255 -58.81029 11015 ft 343 kts 124°
2026-05-04 02:25 -34.56436 -58.78512 10634 ft 340 kts 113°
2026-05-04 02:25 -34.57194 -58.75818 10227 ft 336 kts 109°
2026-05-04 02:25 -34.57433 -58.74938 10010 ft 338 kts 109°
2026-05-04 02:25 -34.58734 -58.70194 8690 ft 350 kts 108°
2026-05-04 02:26 -34.59513 -58.67367 7931 ft 355 kts 108°
2026-05-04 02:26 -34.60301 -58.64510 7186 ft 354 kts 108°
2026-05-04 02:26 -34.61072 -58.61712 6502 ft 344 kts 108°
2026-05-04 02:26 -34.61786 -58.59045 6001 ft 329 kts 107°
2026-05-04 02:27 -34.62470 -58.56477 5687 ft 309 kts 107°
2026-05-04 02:27 -34.63116 -58.54057 5469 ft 291 kts 107°
2026-05-04 02:27 -34.63738 -58.51723 5234 ft 291 kts 107°
2026-05-04 02:27 -34.64353 -58.49415 5006 ft 289 kts 106°
2026-05-04 02:28 -34.64975 -58.47080 4781 ft 286 kts 106°
2026-05-04 02:28 -34.65565 -58.44865 4568 ft 271 kts 106°
2026-05-04 02:28 -34.66134 -58.42721 4362 ft 256 kts 105°
2026-05-04 02:28 -34.66665 -58.40719 4170 ft 252 kts 105°
2026-05-04 02:29 -34.67203 -58.38690 3962 ft 252 kts 105°
2026-05-04 02:29 -34.67741 -58.36667 3767 ft 251 kts 104°
2026-05-04 02:29 -34.68276 -58.34648 3569 ft 248 kts 104°
2026-05-04 02:29 -34.68793 -58.32699 3410 ft 234 kts 104°
2026-05-04 02:30 -34.69271 -58.30892 3250 ft 220 kts 104°
2026-05-04 02:30 -34.69725 -58.29176 3104 ft 208 kts 103°
2026-05-04 02:30 -34.70104 -58.27484 2993 ft 205 kts 88°
2026-05-04 02:30 -34.69853 -58.25873 2863 ft 189 kts 53°
2026-05-04 02:31 -34.68997 -58.24754 2754 ft 176 kts 24°
2026-05-04 02:31 -34.67876 -58.24286 2649 ft 168 kts
2026-05-04 02:31 -34.66729 -58.24148 2549 ft 166 kts 352°
2026-05-04 02:31 -34.65707 -58.24653 2515 ft 157 kts 320°
2026-05-04 02:32 -34.65031 -58.25621 2537 ft 138 kts 311°
2026-05-04 02:32 -34.64512 -58.26423 2521 ft 108 kts 317°
2026-05-04 02:32 -34.64009 -58.27089 2523 ft 111 kts 316°
2026-05-04 02:32 -34.63500 -58.27849 2448 ft 119 kts 313°
2026-05-04 02:33 -34.63002 -58.28678 2317 ft 122 kts 311°
2026-05-04 02:33 -34.62523 -58.29524 2173 ft 122 kts 310°
2026-05-04 02:33 -34.62051 -58.30377 2027 ft 121 kts 310°
2026-05-04 02:33 -34.61588 -58.31222 1882 ft 121 kts 310°
2026-05-04 02:34 -34.61125 -58.32069 1727 ft 121 kts 309°
2026-05-04 02:34 -34.60657 -58.32930 1561 ft 123 kts 310°
2026-05-04 02:34 -34.60182 -58.33800 1396 ft 124 kts 310°
2026-05-04 02:34 -34.59702 -58.34680 1235 ft 125 kts 310°
2026-05-04 02:35 -34.59224 -58.35555 1064 ft 125 kts 310°
2026-05-04 02:35 -34.58731 -58.36458 893 ft 130 kts 310°
2026-05-04 02:35 -34.58233 -58.37366 690 ft 132 kts 307°
2026-05-04 02:35 -34.57707 -58.38328 523 ft 141 kts 307°
2026-05-04 02:36 -34.57184 -58.39309 367 ft 133 kts 306°
2026-05-04 02:36 -34.56680 -58.40221 151 ft 127 kts 305°
2026-05-04 02:36 -34.56196 -58.41087 31 ft 114 kts 304°
2026-05-04 02:36 -34.55861 -58.41687 27 ft 53 kts 304°
2026-05-04 02:37 -34.55676 -58.42023 30 ft 43 kts 305°
2026-05-04 02:37 -34.55537 -58.42271 31 ft 33 kts 303°
2026-05-04 02:37 -34.55416 -58.42484 29 ft 25 kts 312°
2026-05-04 02:37 -34.55358 -58.42477 29 ft 2 kts 77°
2026-05-04 02:38 -34.55359 -58.42448 29 ft 6 kts 99°
2026-05-04 02:38 -34.55373 -58.42374 29 ft 11 kts 111°
2026-05-04 02:38 -34.55402 -58.42317 29 ft 10 kts 128°
2026-05-04 02:38 -34.55470 -58.42211 30 ft 14 kts 126°
2026-05-04 02:39 -34.55536 -58.42100 29 ft 18 kts 126°
2026-05-04 02:39 -34.55617 -58.41965 29 ft 21 kts 125°
2026-05-04 02:39 -34.55676 -58.41861 29 ft 23 kts 123°
2026-05-04 02:39 -34.55763 -58.41683 29 ft 25 kts 117°
2026-05-04 02:40 -34.55864 -58.41443 29 ft 20 kts 117°
2026-05-04 02:40 -34.55897 -58.41365 29 ft 12 kts 114°
2026-05-04 02:40 -34.55905 -58.41329 29 ft 3 kts 92°
2026-05-04 02:40 -34.55889 -58.41296 29 ft 6 kts 39°
2026-05-04 02:41 -34.55840 -58.41283 29 ft 9 kts 333°
2026-05-04 02:41 -34.55806 -58.41330 29 ft 5 kts 319°
2026-05-04 02:41 -34.55782 -58.41331 29 ft 4 kts 21°
2026-05-04 02:41 -34.55772 -58.41326 29 ft 2 kts 20°
2026-05-04 02:42 -34.55764 -58.41321 29 ft 0 kts 31°